Simultaneous Nadir Overpasses (SNOs) Predictions

Prediction of SNOs between GOES-16 and FY3D Satellite Orbit:

Table of predicted SNOs for the next 14.0 days since TLE Epoch: 6/6/2025
Index Date Time (GOES-16) GOES-16 Lat,Lon FY3D Lat,Lon Distance(km) Time Diff (sec)
1 06/06/2025 22:11:52 -0.03,-104.99 -0.32,-106.44 164.74 80
2 06/07/2025 21:50:25 -0.02,-105.52 0.83,-101.90 412.95 80
3 06/09/2025 10:14:47 0.02,-106.32 0.18,-107.13 92.38 80
4 06/10/2025 09:53:20 0.01,-106.83 -0.97,-102.59 484.74 80
5 06/11/2025 22:17:51 -0.01,-107.64 -0.06,-107.85 24.60 80
6 06/14/2025 10:18:06 -0.00,-108.95 -0.09,-108.54 47.10 80
7 06/15/2025 22:42:37 0.00,-109.75 -0.93,-113.80 462.73 80
8 06/16/2025 22:21:10 0.00,-110.27 0.23,-109.26 114.78 80
9 06/18/2025 10:45:32 -0.00,-111.07 0.78,-114.49 390.08 80
10 06/19/2025 10:24:04 -0.00,-111.58 -0.38,-109.95 187.08 80
